Flag for U.S.A. Weather past 2 weeks in Anchorage, Alaska, U.S.A.

Now
64 °F

Passing clouds.


Feels Like: 64 °F
Forecast: 57 / 66 °F
Wind: 9 mph from Northwest

Location: Lake Hood Seaplane

Current Time: Jul 22, 2014 at 6:06:41 PM

Latest Report: Jul 22, 2014 at 4:53 PM


Visibility: 10 mi

Pressure: 29.88 "Hg

Humidity: 58%

Dew point: 49 °F

Location of AnchorageLocation

Historic Weather in Anchorage — Graph

°F

Anchorage temperature yesterday

Maximum temperature yesterday: 71 °F (at 6:53 PM)
Minimum temperature yesterday: 54 °F (at 4:53 AM)
Average temperature yesterday: 62 °F

Past Weeks' High & Low Weather Summary

 TemperatureHumidityPressure
High71 °F (Jul 21, 6:53 PM)94% (Jul 10, 2:02 PM)30.34 "Hg (Jul 10, 2:02 PM)
Low52 °F (Jul 15, 3:53 AM)31% (Jul 21, 6:53 PM)29.58 "Hg (Jul 19, 7:53 PM)
Average60 °F66%29.96 "Hg
* Reported Jul 7 4:53 PM — Jul 22 4:53 PM, Anchorage, Weather by CustomWeather, © 2014

Note: Actual official high and low records may vary slightly from our data, if they occured in-between our weather recording intervals... More about our weather records

Advertising

Anchorage weather history for previous 24 hours

 ConditionsComfort  
Time TempWeatherWind HumidityBarometerVisibility
4:53 PM
Jul 22
64 °FPassing clouds.9 mph58%29.88 "Hg10 mi
3:53 PM62 °FSunny.12 mph67%29.90 "Hg10 mi
8:53 AM60 °FSunny.7 mph58%29.96 "Hg10 mi
7:53 AM57 °FSunny.No wind67%29.97 "Hg10 mi
6:53 AM55 °FSunny.No wind72%29.98 "Hg10 mi
5:53 AM52 °FClear.No wind80%29.98 "Hg10 mi
4:53 AM54 °FClear.No wind74%30.00 "Hg10 mi
3:53 AM53 °FClear.No wind80%30.01 "Hg10 mi
2:53 AM56 °FClear.No wind67%30.02 "Hg10 mi
1:53 AM56 °FClear.No wind67%30.03 "Hg10 mi
12:53 AM58 °FClear.3 mph58%30.03 "Hg10 mi
11:53 PM
Jul 21
62 °FSunny.3 mph46%30.02 "Hg10 mi
10:53 PM63 °FSunny.No wind52%30.01 "Hg10 mi
9:53 PM66 °FSunny.5 mph40%30.01 "Hg10 mi
8:53 PM69 °FSunny.5 mph36%30.01 "Hg10 mi
7:53 PM70 °FSunny.5 mph35%30.01 "Hg10 mi
6:53 PM71 °FSunny.6 mph31%30.02 "Hg10 mi
Weather by CustomWeather, © 2014

See weather overviewHow to use our weather pages